Location: Newark
(42.7133°N, 87.7910°W)
Time: 02:02:12
(UTC+00:00)

Transit 4A - Pass Details

Date: 25 September 2019
Orbit: 867 x 978 km, 66.8° (Epoch: 21 October)

Event Time Altitude Azimuth Distance (km) Brightness Sun altitude
Rises 02:32:12 0° 318° (NW) 3,570 12.0 -30.2°
Reaches altitude 10° 02:35:13 10° 304° (NW) 2,603 11.1 -30.6°
Maximum altitude 02:39:50 23° 254° (WSW) 1,791 9.7 -31.4°
Enters shadow 02:42:17 18° 221° (SW) 2,032 9.7 -31.7°
